SBONWEB Weather Reports


Display with metric or nautical units.
time (UTC)temp
F
wind
direction
speed
MPH
gust
MPH
rain 1hr
in
rain 24hr
in
rain mn
in
humidity
%
barometer
mb
20260504003603 57 0 0.0 0.0 0.00 0.00 0.00 66 1017.4
20260504002703 56 0 0.0 0.0 0.00 0.00 0.00 65 1017.5
20260504001803 56 217 0.0 3.0 0.00 0.00 0.00 68 1017.6
20260504000903 56 222 0.0 1.0 0.00 0.00 0.00 68 1017.7
20260504000003 57 0 0.0 0.0 0.00 0.00 0.00 69 1017.7
20260503235618 57 0 0.0 0.0 0.00 0.00 0.00 69 1017.7
20260503234503 57 0 0.0 0.0 0.00 0.00 0.00 69 1017.9
20260503233603 57 0 0.0 0.0 0.00 0.00 0.00 69 1018.0
20260503232703 57 0 0.0 0.0 0.00 0.00 0.00 69 1018.0
20260503231803 57 0 0.0 0.0 0.00 0.00 0.00 69 1018.0
20260503230903 57 0 0.0 0.0 0.00 0.00 0.00 69 1018.1
20260503230003 57 0 0.0 0.0 0.00 0.00 0.00 70 1018.2
20260503225403 57 0 0.0 0.0 0.00 0.00 0.00 71 1018.1
20260503224503 56 204 0.0 1.0 0.00 0.00 0.00 71 1018.2
20260503223603 56 203 0.0 4.0 0.00 0.00 0.00 70 1018.2
20260503222918 56 209 0.0 1.0 0.00 0.00 0.00 70 1018.2
20260503221803 57 209 0.0 1.0 0.00 0.00 0.00 68 1018.2
20260503220903 58 209 1.0 1.0 0.00 0.00 0.00 67 1018.1
20260503220218 58 205 1.0 3.0 0.00 0.00 0.00 66 1018.0
20260503215403 58 194 1.0 3.0 0.00 0.00 0.00 65 1018.1
20260503214503 58 190 1.0 2.0 0.00 0.00 0.00 65 1018.1
20260503213603 59 181 1.0 3.0 0.00 0.00 0.00 65 1018.0
20260503212703 59 201 1.0 2.0 0.00 0.00 0.00 64 1017.9
20260503210903 59 184 1.0 3.0 0.00 0.00 0.00 62 1017.9
20260503210003 59 187 1.0 4.0 0.00 0.00 0.00 62 1017.9
20260503205403 59 188 1.0 4.0 0.00 0.00 0.00 62 1017.9
20260503204719 59 183 1.0 3.0 0.00 0.00 0.00 61 1017.9
20260503203603 59 162 0.0 4.0 0.00 0.00 0.00 61 1017.9
20260503202703 59 154 0.0 2.0 0.00 0.00 0.00 61 1017.9
20260503201804 60 0 0.0 0.0 0.00 0.00 0.00 61 1017.7
20260503200903 59 0 0.0 0.0 0.00 0.00 0.00 59 1017.7
20260503200003 59 176 1.0 1.0 0.00 0.00 0.00 62 1017.7
20260503195403 59 176 1.0 2.0 0.00 0.00 0.00 65 1017.7
20260503194504 59 176 0.0 2.0 0.00 0.00 0.00 65 1017.6
20260503193818 60 176 1.0 1.0 0.00 0.00 0.00 63 1017.5
20260503192703 61 157 0.0 2.0 0.00 0.00 0.00 60 1017.5
20260503191803 63 134 0.0 1.0 0.00 0.00 0.00 58 1017.3
20260503190903 63 134 0.0 1.0 0.00 0.00 0.00 56 1017.2
20260503190003 64 133 0.0 2.0 0.00 0.00 0.00 55 1017.2
20260503185617 64 134 0.0 2.0 0.00 0.00 0.00 54 1017.1
20260503184718 64 128 2.0 5.0 0.00 0.00 0.00 57 1017.2
20260503183603 64 142 0.0 8.0 0.00 0.00 0.00 55 1017.2
20260503182703 64 194 0.0 2.0 0.00 0.00 0.00 60 1017.1
20260503182018 65 194 0.0 2.0 0.00 0.00 0.00 58 1017.0
20260503180903 65 194 0.0 1.0 0.00 0.00 0.00 59 1017.1
20260503180003 66 193 0.0 2.0 0.00 0.00 0.00 59 1017.0
20260503175616 66 193 1.0 2.0 0.00 0.00 0.00 59 1017.0
20260503174503 67 191 1.0 2.0 0.00 0.00 0.00 58 1017.0
20260503173603 68 181 0.0 2.0 0.00 0.00 0.00 54 1016.9
20260503172703 68 180 0.0 1.0 0.00 0.00 0.00 58 1017.0
20260503171803 68 180 1.0 2.0 0.00 0.00 0.00 54 1017.1
20260503171117 69 180 0.0 2.0 0.00 0.00 0.00 50 1017.1
20260503170218 69 180 0.0 2.0 0.00 0.00 0.00 48 1017.0
20260503150903 70 146 1.0 3.0 0.00 0.00 0.00 45 1017.6
20260503131118 70 161 2.0 5.0 0.00 0.00 0.00 45 1018.8
20260503100218 68 127 4.0 8.0 0.00 0.00 0.00 44 1019.3
20260503080903 65 101 3.0 9.0 0.00 0.00 0.00 53 1019.6
20260503072703 63 43 3.0 6.0 0.00 0.00 0.00 58 1019.6
20260503072018 62 27 4.0 8.0 0.00 0.00 0.00 58 1019.6
20260503070903 62 25 5.0 10.0 0.00 0.00 0.00 61 1019.6
20260503054503 56 18 3.0 5.0 0.00 0.00 0.00 69 1019.6
20260503053603 56 26 4.0 5.0 0.00 0.00 0.00 69 1019.6
20260503052704 56 28 3.0 6.0 0.00 0.00 0.00 69 1019.4
20260503051803 55 15 2.0 5.0 0.00 0.00 0.00 71 1019.4
20260503051117 55 2 1.0 4.0 0.00 0.00 0.00 72 1019.5
20260503050003 54 354 0.0 2.0 0.00 0.00 0.00 74 1019.5
20260503045403 54 11 0.0 2.0 0.00 0.00 0.00 73 1019.4
20260503044503 53 14 0.0 2.0 0.00 0.00 0.00 73 1019.4
20260503043604 53 15 0.0 2.0 0.00 0.00 0.00 73 1019.4
20260503042703 54 10 1.0 4.0 0.00 0.00 0.00 72 1019.5
20260503041803 54 227 1.0 4.0 0.00 0.00 0.00 72 1019.5
20260503041116 54 219 1.0 2.0 0.00 0.00 0.00 70 1019.5
20260503040218 55 237 2.0 3.0 0.00 0.00 0.00 70 1019.5
20260503035617 55 349 4.0 6.0 0.00 0.00 0.00 69 1019.4
20260503034716 55 9 5.0 8.0 0.00 0.00 0.00 68 1019.4
20260503033818 55 5 4.0 8.0 0.00 0.00 0.00 69 1019.4
20260503032703 55 6 3.0 8.0 0.00 0.00 0.00 69 1019.4
20260503031803 54 3 2.0 5.0 0.00 0.00 0.00 71 1019.4
20260503030904 53 4 2.0 5.0 0.00 0.00 0.00 72 1019.4
20260503030003 53 357 1.0 3.0 0.00 0.00 0.00 72 1019.6
20260503025403 53 358 1.0 3.0 0.00 0.00 0.00 72 1019.6
20260503024503 54 298 1.0 2.0 0.00 0.00 0.00 71 1019.6
20260503023603 54 338 1.0 3.0 0.00 0.00 0.00 71 1019.7
20260503022919 54 21 2.0 4.0 0.00 0.00 0.00 70 1019.6
20260503021803 55 19 3.0 8.0 0.00 0.00 0.00 69 1019.7
20260503020903 55 2 2.0 5.0 0.00 0.00 0.00 68 1019.8
20260503020004 56 339 4.0 7.0 0.00 0.00 0.00 68 1019.8
20260503015403 56 1 4.0 8.0 0.00 0.00 0.00 67 1019.8
20260503014503 56 358 4.0 8.0 0.00 0.00 0.00 67 1019.8
20260503013604 56 357 4.0 9.0 0.00 0.00 0.00 67 1019.9
20260503012918 56 1 4.0 8.0 0.00 0.00 0.00 68 1019.8
20260503011803 54 360 2.0 7.0 0.00 0.00 0.00 70 1019.8
20260503010903 54 330 2.0 7.0 0.00 0.00 0.00 71 1020.0
20260503010003 54 322 2.0 5.0 0.00 0.00 0.00 71 1020.1
20260503005403 54 341 2.0 7.0 0.00 0.00 0.00 71 1020.1
20260503004717 54 346 2.0 7.0 0.00 0.00 0.00 71 1020.3